�������l�o���
Date,Time,MP-1(��Sv/h),MP-2(��Sv/h),MP-3(��Sv/h),MP-4(��Sv/h),MP-5(��Sv/h),MP-6(��Sv/h),MP-7(��Sv/h),MP-8(��Sv/h),����,����(m/s),���J
2017/10/14,00:00,0.894,1.414,0.920,1.703,1.165,0.496,0.906,0.840,���k��,0.9,��
2017/10/14,00:10,0.897,1.415,0.919,1.704,1.165,0.496,0.904,0.839,���k��,1.2,��
2017/10/14,00:20,0.895,1.414,0.920,1.704,1.163,0.496,0.905,0.839,���k��,1.7,��
2017/10/14,00:30,0.893,1.412,0.919,1.702,1.163,0.496,0.905,0.841,�k��,0.9,��
2017/10/14,00:40,0.895,1.415,0.921,1.702,1.164,0.496,0.906,0.841,�k��,1.1,��
2017/10/14,00:50,0.893,1.414,0.922,1.703,1.167,0.496,0.906,0.840,���k��,1.4,��
2017/10/14,01:00,0.894,1.415,0.918,1.704,1.165,0.496,0.906,0.839,�k��,1.5,�L
2017/10/14,01:10,0.895,1.412,0.921,1.702,1.166,0.496,0.907,0.840,�k��,1.7,�L
2017/10/14,01:20,0.895,1.413,0.921,1.701,1.165,0.495,0.904,0.841,�k��,1.7,��
2017/10/14,01:30,0.894,1.414,0.921,1.703,1.166,0.494,0.905,0.840,�k��,1.2,��
2017/10/14,01:40,0.897,1.413,0.920,1.705,1.167,0.497,0.907,0.841,�k�k��,0.9,��
2017/10/14,01:50,0.896,1.414,0.918,1.703,1.167,0.496,0.906,0.840,�k�k��,1.2,��
2017/10/14,02:00,0.895,1.418,0.920,1.705,1.165,0.497,0.906,0.840,�k��,1.7,��
2017/10/14,02:10,0.895,1.416,0.921,1.708,1.165,0.495,0.904,0.842,�k�k��,1.7,��
2017/10/14,02:20,0.896,1.416,0.921,1.704,1.167,0.496,0.905,0.841,�k��,2.5,��
2017/10/14,02:30,0.897,1.418,0.922,1.706,1.165,0.496,0.908,0.840,�k�k��,2.6,�L
2017/10/14,02:40,0.895,1.416,0.920,1.707,1.164,0.494,0.905,0.841,�k��,1.9,�L
2017/10/14,02:50,0.895,1.417,0.920,1.704,1.167,0.498,0.903,0.841,�k��,1.9,�L
2017/10/14,03:00,0.896,1.415,0.921,1.706,1.166,0.496,0.906,0.842,�k�k��,2.0,��
2017/10/14,03:10,0.894,1.415,0.920,1.705,1.167,0.495,0.904,0.843,�k�k��,2.2,��
2017/10/14,03:20,0.896,1.416,0.920,1.705,1.166,0.495,0.906,0.841,�k�k��,2.6,��
2017/10/14,03:30,0.898,1.414,0.923,1.704,1.168,0.494,0.907,0.841,�k�k��,2.6,��
2017/10/14,03:40,0.897,1.415,0.922,1.704,1.168,0.496,0.907,0.840,�k�k��,3.3,�L
2017/10/14,03:50,0.896,1.416,0.921,1.708,1.168,0.496,0.906,0.841,�k,3.1,�L
2017/10/14,04:00,0.897,1.418,0.923,1.706,1.167,0.497,0.906,0.841,�k�k��,3.2,�L
2017/10/14,04:10,0.895,1.414,0.922,1.710,1.168,0.495,0.907,0.839,�k�k��,2.6,�L
2017/10/14,04:20,0.897,1.418,0.922,1.707,1.169,0.498,0.905,0.842,�k,2.8,�L
2017/10/14,04:30,0.897,1.415,0.922,1.706,1.168,0.498,0.908,0.841,�k,2.6,��
2017/10/14,04:40,0.896,1.414,0.920,1.706,1.167,0.498,0.906,0.841,�k,3.5,��
2017/10/14,04:50,0.897,1.414,0.923,1.707,1.167,0.498,0.907,0.841,�k�k��,4.0,��
2017/10/14,05:00,0.897,1.417,0.923,1.707,1.169,0.497,0.907,0.842,�k,3.9,��
2017/10/14,05:10,0.896,1.416,0.923,1.707,1.168,0.497,0.907,0.842,�k�k��,4.2,�L
2017/10/14,05:20,0.897,1.416,0.923,1.706,1.168,0.497,0.907,0.842,�k,4.2,�L
2017/10/14,05:30,0.896,1.418,0.921,1.706,1.169,0.495,0.909,0.843,�k,3.7,�L
2017/10/14,05:40,0.895,1.414,0.923,1.707,1.169,0.496,0.909,0.841,�k,3.4,�L
2017/10/14,05:50,0.897,1.415,0.923,1.707,1.169,0.496,0.907,0.844,�k�k��,4.1,�L
2017/10/14,06:00,0.897,1.415,0.921,1.708,1.166,0.497,0.908,0.840,�k�k��,5.3,�L
2017/10/14,06:10,0.897,1.415,0.923,1.708,1.169,0.498,0.908,0.842,�k�k��,5.1,�L
2017/10/14,06:20,0.895,1.414,0.920,1.705,1.165,0.497,0.905,0.839,�k�k��,5.0,�L
2017/10/14,06:30,0.894,1.410,0.922,1.706,1.163,0.498,0.903,0.841,�k��,4.3,�L
2017/10/14,06:40,0.897,1.410,0.920,1.703,1.161,0.498,0.904,0.838,�k�k��,3.8,�L
2017/10/14,06:50,0.894,1.407,0.921,1.701,1.160,0.498,0.899,0.837,-,CALM,�L
2017/10/14,07:00,0.893,1.406,0.919,1.697,1.159,0.498,0.899,0.840,�k��,1.2,�L
2017/10/14,07:10,0.894,1.402,0.918,1.694,1.156,0.498,0.900,0.837,-,CALM,�L
2017/10/14,07:20,0.893,1.403,0.919,1.692,1.154,0.501,0.898,0.838,�k�k��,1.4,�L
2017/10/14,07:30,0.893,1.402,0.920,1.688,1.154,0.500,0.898,0.836,�k�k��,2.0,�L
2017/10/14,07:40,0.893,1.401,0.920,1.693,1.154,0.498,0.898,0.837,�k�k��,2.3,�L
2017/10/14,07:50,0.891,1.398,0.917,1.690,1.154,0.499,0.898,0.838,�k�k��,3.3,�L
2017/10/14,08:00,0.892,1.398,0.919,1.687,1.155,0.499,0.900,0.836,�k�k��,3.7,�L
2017/10/14,08:10,0.893,1.402,0.918,1.687,1.154,0.498,0.899,0.836,�k�k��,4.0,�L
2017/10/14,08:20,0.890,1.401,0.917,1.688,1.153,0.498,0.897,0.836,�k�k��,4.3,�L
2017/10/14,08:30,0.891,1.401,0.917,1.689,1.155,0.497,0.900,0.837,�k��,5.2,�L
2017/10/14,08:40,0.891,1.399,0.914,1.682,1.148,0.498,0.897,0.838,�k�k��,5.3,�L
2017/10/14,08:50,0.890,1.398,0.914,1.678,1.148,0.495,0.899,0.836,�k��,4.5,�L
2017/10/14,09:00,0.889,1.402,0.917,1.680,1.148,0.495,0.899,0.836,�k��,4.5,�L
2017/10/14,09:10,0.889,1.394,0.914,1.678,1.147,0.496,0.897,0.836,�k��,4.2,�L
2017/10/14,09:20,0.890,1.398,0.915,1.679,1.145,0.493,0.897,0.837,�k�k��,4.5,�L
2017/10/14,09:30,0.889,1.397,0.916,1.680,1.143,0.494,0.896,0.835,�k�k��,3.5,�L
2017/10/14,09:40,0.888,1.395,0.913,1.678,1.143,0.496,0.896,0.836,�k�k��,4.3,�L
2017/10/14,09:50,0.889,1.395,0.914,1.680,1.142,0.494,0.896,0.836,�k�k��,3.2,�L
2017/10/14,10:00,0.890,1.396,0.913,1.678,1.148,0.493,0.897,0.836,�k�k��,3.8,�L
2017/10/14,10:10,0.889,1.396,0.915,1.680,1.147,0.494,0.897,0.834,�k�k��,4.5,�L
2017/10/14,10:20,0.888,1.394,0.913,1.680,1.145,0.494,0.897,0.835,�k�k��,4.3,�L
2017/10/14,10:30,0.891,1.400,0.913,1.679,1.149,0.494,0.897,0.835,�k�k��,4.4,�L
2017/10/14,10:40,0.890,1.400,0.913,1.684,1.147,0.494,0.898,0.835,�k�k��,4.8,�L
2017/10/14,10:50,0.889,1.398,0.913,1.684,1.149,0.494,0.898,0.835,�k�k��,4.6,�L
2017/10/14,11:00,0.892,1.398,0.913,1.684,1.150,0.495,0.898,0.838,�k�k��,4.2,�L
2017/10/14,11:10,0.889,1.397,0.914,1.686,1.150,0.495,0.897,0.837,�k�k��,5.2,�L
2017/10/14,11:20,0.891,1.399,0.915,1.686,1.152,0.494,0.900,0.835,�k�k��,4.6,�L
2017/10/14,11:30,0.892,1.401,0.916,1.686,1.149,0.495,0.898,0.836,�k�k��,5.3,�L
2017/10/14,11:40,0.890,1.396,0.916,1.687,1.151,0.496,0.899,0.838,�k�k��,5.3,�L
2017/10/14,11:50,0.890,1.395,0.915,1.686,1.152,0.496,0.898,0.837,�k��,4.8,�L
2017/10/14,12:00,0.890,1.399,0.916,1.684,1.152,0.494,0.899,0.837,�k��,4.6,�L
2017/10/14,12:10,0.890,1.398,0.917,1.688,1.152,0.496,0.899,0.836,�k�k��,4.4,�L
2017/10/14,12:20,0.889,1.398,0.915,1.685,1.151,0.496,0.898,0.836,�k�k��,5.5,�L
2017/10/14,12:30,0.889,1.399,0.916,1.688,1.152,0.495,0.897,0.836,�k�k��,5.2,�L
2017/10/14,12:40,0.890,1.400,0.914,1.686,1.151,0.496,0.897,0.834,�k�k��,5.9,�L
2017/10/14,12:50,0.893,1.396,0.915,1.685,1.149,0.497,0.896,0.837,�k�k��,5.5,�L
2017/10/14,13:00,0.891,1.399,0.915,1.685,1.150,0.497,0.895,0.837,�k�k��,5.1,�L
2017/10/14,13:10,0.889,1.397,0.916,1.682,1.149,0.498,0.895,0.838,�k�k��,5.6,�L
2017/10/14,13:20,0.892,1.395,0.914,1.681,1.148,0.498,0.896,0.835,�k�k��,5.5,�L
2017/10/14,13:30,0.892,1.393,0.915,1.680,1.145,0.497,0.898,0.834,�k�k��,5.7,�L
2017/10/14,13:40,0.891,1.394,0.917,1.683,1.150,0.496,0.897,0.837,�k�k��,5.2,�L
2017/10/14,13:50,0.891,1.394,0.916,1.682,1.146,0.498,0.897,0.837,�k�k��,4.9,�L
2017/10/14,14:00,0.890,1.397,0.913,1.684,1.149,0.497,0.898,0.837,�k�k��,5.2,�L
2017/10/14,14:10,0.890,1.398,0.915,1.683,1.149,0.495,0.898,0.838,�k�k��,4.5,�L
2017/10/14,14:20,0.891,1.397,0.915,1.685,1.148,0.494,0.899,0.836,�k�k��,5.3,�L
2017/10/14,14:30,0.891,1.399,0.913,1.684,1.150,0.495,0.897,0.837,�k�k��,5.1,�L
2017/10/14,14:40,0.889,1.398,0.913,1.684,1.149,0.495,0.897,0.837,�k�k��,5.3,�L
2017/10/14,14:50,0.891,1.398,0.914,1.683,1.150,0.495,0.898,0.837,�k�k��,5.7,�L
2017/10/14,15:00,0.890,1.396,0.913,1.684,1.152,0.494,0.898,0.838,�k�k��,5.0,�L
2017/10/14,15:10,0.889,1.399,0.913,1.683,1.149,0.495,0.897,0.836,�k�k��,5.6,�L
2017/10/14,15:20,0.890,1.396,0.913,1.684,1.151,0.497,0.897,0.835,�k�k��,5.7,�L
2017/10/14,15:30,0.889,1.398,0.914,1.681,1.150,0.495,0.897,0.838,�k�k��,5.0,�L
2017/10/14,15:40,0.886,1.396,0.913,1.683,1.149,0.495,0.898,0.838,�k�k��,5.5,�L
2017/10/14,15:50,0.889,1.399,0.912,1.679,1.149,0.494,0.897,0.838,�k�k��,5.7,�L
2017/10/14,16:00,0.886,1.397,0.914,1.681,1.148,0.496,0.895,0.836,�k�k��,6.4,�L
2017/10/14,16:10,0.888,1.397,0.911,1.683,1.147,0.495,0.895,0.836,�k�k��,5.4,�L
2017/10/14,16:20,0.887,1.397,0.913,1.683,1.149,0.495,0.897,0.838,�k�k��,5.3,�L
2017/10/14,16:30,0.889,1.396,0.914,1.682,1.148,0.496,0.898,0.837,�k�k��,5.2,�L
2017/10/14,16:40,0.889,1.396,0.911,1.678,1.149,0.495,0.897,0.835,�k�k��,5.2,�L
2017/10/14,16:50,0.888,1.397,0.912,1.680,1.147,0.495,0.896,0.837,�k�k��,4.6,�L
2017/10/14,17:00,0.886,1.397,0.911,1.679,1.148,0.494,0.896,0.837,�k�k��,4.2,�L
2017/10/14,17:10,0.888,1.400,0.912,1.682,1.145,0.495,0.897,0.834,�k�k��,4.2,�L
2017/10/14,17:20,0.888,1.399,0.911,1.680,1.146,0.494,0.896,0.836,�k�k��,5.4,��
2017/10/14,17:30,0.888,1.397,0.912,1.681,1.146,0.494,0.897,0.836,�k��,5.3,��
2017/10/14,17:40,0.889,1.397,0.911,1.681,1.148,0.493,0.896,0.837,�k�k��,4.9,��
2017/10/14,17:50,0.888,1.400,0.912,1.680,1.150,0.495,0.897,0.838,�k�k��,4.9,��
2017/10/14,18:00,0.886,1.400,0.911,1.680,1.147,0.493,0.896,0.836,�k�k��,5.3,��
2017/10/14,18:10,0.887,1.399,0.910,1.681,1.151,0.493,0.896,0.837,�k��,6.0,��
2017/10/14,18:20,0.889,1.398,0.913,1.684,1.149,0.492,0.897,0.838,�k��,6.1,�L
2017/10/14,18:30,0.888,1.399,0.911,1.683,1.149,0.492,0.897,0.838,�k��,5.1,�L
2017/10/14,18:40,0.890,1.401,0.912,1.682,1.150,0.494,0.897,0.837,�k��,5.6,�L
2017/10/14,18:50,0.886,1.402,0.913,1.683,1.150,0.494,0.896,0.836,�k��,6.0,��
2017/10/14,19:00,0.886,1.398,0.913,1.684,1.148,0.493,0.896,0.837,�k�k��,5.8,��
2017/10/14,19:10,0.888,1.401,0.912,1.687,1.149,0.492,0.898,0.838,�k��,5.6,��
2017/10/14,19:20,0.887,1.401,0.914,1.687,1.152,0.494,0.897,0.838,�k��,5.5,��
2017/10/14,19:30,0.889,1.402,0.916,1.686,1.152,0.493,0.900,0.838,�k��,6.0,��
2017/10/14,19:40,0.889,1.403,0.914,1.684,1.154,0.494,0.897,0.838,�k��,5.3,��
2017/10/14,19:50,0.888,1.401,0.912,1.688,1.153,0.493,0.898,0.836,�k��,4.8,��
2017/10/14,20:00,0.891,1.403,0.913,1.687,1.152,0.494,0.898,0.838,�k��,4.5,��
2017/10/14,20:10,0.889,1.399,0.914,1.691,1.153,0.494,0.898,0.839,�k��,5.0,��
2017/10/14,20:20,0.891,1.402,0.913,1.690,1.153,0.494,0.899,0.838,�k��,4.2,��
2017/10/14,20:30,0.889,1.400,0.914,1.690,1.150,0.493,0.899,0.839,�k��,4.1,��
2017/10/14,20:40,0.890,1.402,0.913,1.688,1.153,0.493,0.898,0.838,�k��,3.4,��
2017/10/14,20:50,0.889,1.403,0.914,1.690,1.152,0.494,0.900,0.839,�k��,3.7,��
2017/10/14,21:00,0.891,1.405,0.916,1.690,1.154,0.495,0.901,0.839,�k��,3.7,��
2017/10/14,21:10,0.891,1.403,0.916,1.688,1.153,0.495,0.899,0.839,�k��,4.3,��
2017/10/14,21:20,0.890,1.404,0.917,1.691,1.154,0.493,0.900,0.838,�k��,4.6,��
2017/10/14,21:30,0.889,1.405,0.914,1.689,1.154,0.493,0.900,0.838,�k��,5.1,��
2017/10/14,21:40,0.891,1.403,0.915,1.691,1.155,0.492,0.899,0.839,�k��,4.2,��
2017/10/14,21:50,0.890,1.404,0.915,1.689,1.155,0.493,0.899,0.838,�k��,4.0,��
2017/10/14,22:00,0.890,1.405,0.915,1.691,1.157,0.494,0.902,0.838,�k��,4.3,��
2017/10/14,22:10,0.890,1.402,0.915,1.691,1.156,0.494,0.900,0.838,�k��,3.1,��
2017/10/14,22:20,0.890,1.405,0.917,1.691,1.156,0.494,0.902,0.839,�k��,2.2,��
2017/10/14,22:30,0.892,1.405,0.913,1.691,1.155,0.494,0.901,0.838,���k��,2.6,��
2017/10/14,22:40,0.889,1.405,0.916,1.697,1.155,0.495,0.901,0.838,���k��,2.3,��
2017/10/14,22:50,0.891,1.403,0.915,1.693,1.154,0.493,0.900,0.840,���k��,3.3,��
2017/10/14,23:00,0.890,1.406,0.915,1.694,1.156,0.495,0.902,0.838,���k��,3.4,��
2017/10/14,23:10,0.891,1.406,0.913,1.696,1.158,0.494,0.902,0.838,���k��,4.2,��
2017/10/14,23:20,0.891,1.404,0.914,1.690,1.156,0.493,0.901,0.839,���k��,4.5,��
2017/10/14,23:30,0.892,1.407,0.915,1.694,1.158,0.494,0.901,0.839,���k��,4.8,��
2017/10/14,23:40,0.889,1.405,0.913,1.696,1.154,0.492,0.902,0.839,�k��,5.1,��
2017/10/14,23:50,0.891,1.404,0.914,1.693,1.154,0.493,0.901,0.837,�k��,4.9,��
